Time,TemperatureF,DewpointF,PressureIn,WindDirection,WindDirectionDegrees,WindSpeedMPH,WindSpeedGustMPH,Humidity,HourlyPrecipIn,Conditions,Clouds,dailyrainin,SoftwareType,DateUTC
2013-07-23 00:02:00,82.0,66.0,29.85,South,180,10.0,-999.0,58,-99.99,,,-99.99,,2013-07-23 05:02:00,
2013-07-23 00:11:00,81.0,66.0,29.86,South,180,8.0,-999.0,61,-99.99,,,-99.99,,2013-07-23 05:11:00,
2013-07-23 00:22:00,81.0,64.0,29.87,South,180,6.0,-999.0,57,-99.99,,,-99.99,,2013-07-23 05:22:00,
2013-07-23 00:33:00,81.0,66.0,29.91,NW,320,15.0,-999.0,61,-99.99,,,-99.99,,2013-07-23 05:33:00,
2013-07-23 00:43:00,81.0,66.0,29.92,North,350,6.0,12.0,61,-99.99,,,-99.99,,2013-07-23 05:43:00,
2013-07-23 01:01:00,82.0,66.0,29.93,SE,140,5.0,-999.0,58,-99.99,,,-99.99,,2013-07-23 06:01:00,
2013-07-23 01:11:00,81.0,68.0,29.91,ESE,120,12.0,-999.0,65,-99.99,,,-99.99,,2013-07-23 06:11:00,
2013-07-23 01:22:00,81.0,68.0,29.91,NE,50,3.0,-999.0,65,-99.99,,,-99.99,,2013-07-23 06:22:00,
2013-07-23 01:33:00,81.0,66.0,29.92,SSE,160,5.0,-999.0,61,-99.99,,,-99.99,,2013-07-23 06:33:00,
2013-07-23 01:42:00,81.0,70.0,29.91,NNE,30,6.0,-999.0,69,-99.99,,,-99.99,,2013-07-23 06:42:00,
2013-07-23 02:01:00,82.0,66.0,29.89,North,0,0.0,-999.0,58,-99.99,,,-99.99,,2013-07-23 07:01:00,
2013-07-23 02:11:00,82.0,66.0,29.88,SSW,210,8.0,-999.0,58,-99.99,,,-99.99,,2013-07-23 07:11:00,
2013-07-23 02:21:00,84.0,66.0,29.88,SW,230,7.0,-999.0,54,-99.99,,,-99.99,,2013-07-23 07:21:00,
2013-07-23 02:33:00,82.0,68.0,29.88,WNW,290,5.0,-999.0,61,-99.99,,,-99.99,,2013-07-23 07:33:00,
2013-07-23 02:42:00,81.0,68.0,29.85,SSW,200,12.0,-999.0,65,-99.99,,,-99.99,,2013-07-23 07:42:00,
2013-07-23 02:52:00,82.0,66.0,29.85,SSW,210,8.0,-999.0,58,-99.99,,,-99.99,,2013-07-23 07:52:00,
2013-07-23 03:01:00,82.0,66.0,29.85,SSW,210,8.0,-999.0,58,-99.99,,,-99.99,,2013-07-23 08:01:00,
2013-07-23 03:11:00,82.0,66.0,29.85,SW,220,8.0,-999.0,58,-99.99,,,-99.99,,2013-07-23 08:11:00,
2013-07-23 03:21:00,81.0,66.0,29.85,SW,220,8.0,-999.0,61,-99.99,,,-99.99,,2013-07-23 08:21:00,
2013-07-23 03:33:00,81.0,68.0,29.84,SW,230,9.0,-999.0,65,-99.99,,,-99.99,,2013-07-23 08:33:00,
2013-07-23 03:43:00,81.0,68.0,29.84,SW,230,10.0,-999.0,65,-99.99,,,-99.99,,2013-07-23 08:43:00,
2013-07-23 04:01:00,82.0,68.0,29.85,SW,230,8.0,-999.0,61,-99.99,,,-99.99,,2013-07-23 09:01:00,
2013-07-23 04:11:00,81.0,68.0,29.86,WSW,250,6.0,-999.0,65,-99.99,,,-99.99,,2013-07-23 09:11:00,
2013-07-23 04:22:00,79.0,70.0,29.86,North,0,0.0,-999.0,73,-99.99,,,-99.99,,2013-07-23 09:22:00,
2013-07-23 04:33:00,79.0,68.0,29.86,North,0,0.0,-999.0,69,-99.99,,,-99.99,,2013-07-23 09:33:00,
2013-07-23 04:42:00,77.0,70.0,29.87,North,0,0.0,-999.0,78,-99.99,,,-99.99,,2013-07-23 09:42:00,
2013-07-23 04:52:00,75.0,70.0,29.87,North,350,6.0,-999.0,83,-99.99,,,-99.99,,2013-07-23 09:52:00,
2013-07-23 05:01:00,75.0,70.0,29.87,North,0,0.0,-999.0,83,-99.99,,,-99.99,,2013-07-23 10:01:00,
2013-07-23 05:11:00,77.0,70.0,29.88,NW,310,5.0,-999.0,78,-99.99,,,-99.99,,2013-07-23 10:11:00,
2013-07-23 05:22:00,79.0,70.0,29.90,NW,310,10.0,-999.0,73,-99.99,,,-99.99,,2013-07-23 10:22:00,
2013-07-23 05:32:00,81.0,70.0,29.90,NW,310,5.0,-999.0,69,-99.99,,,-99.99,,2013-07-23 10:32:00,
2013-07-23 05:43:00,79.0,70.0,29.90,North,0,0.0,-999.0,73,-99.99,,,-99.99,,2013-07-23 10:43:00,
2013-07-23 05:52:00,79.0,70.0,29.90,North,0,0.0,-999.0,73,-99.99,,,-99.99,,2013-07-23 10:52:00,
2013-07-23 06:01:00,77.0,72.0,29.91,NW,310,5.0,-999.0,83,-99.99,,,-99.99,,2013-07-23 11:01:00,
2013-07-23 06:11:00,77.0,72.0,29.91,NW,310,5.0,-999.0,83,-99.99,,,-99.99,,2013-07-23 11:11:00,
2013-07-23 06:22:00,79.0,70.0,29.91,WNW,300,6.0,-999.0,73,-99.99,,,-99.99,,2013-07-23 11:22:00,
2013-07-23 06:32:00,79.0,70.0,29.91,WNW,300,8.0,-999.0,73,-99.99,,,-99.99,,2013-07-23 11:32:00,
2013-07-23 06:43:00,77.0,72.0,29.90,WNW,290,5.0,-999.0,83,-99.99,,,-99.99,,2013-07-23 11:43:00,
2013-07-23 06:52:00,77.0,72.0,29.88,North,0,0.0,-999.0,83,-99.99,,,-99.99,,2013-07-23 11:52:00,
2013-07-23 07:02:00,75.0,72.0,29.86,South,180,7.0,-999.0,88,-99.99,,,-99.99,,2013-07-23 12:02:00,
2013-07-23 07:33:00,75.0,72.0,29.86,SW,220,6.0,-999.0,88,-99.99,,,-99.99,,2013-07-23 12:33:00,
2013-07-23 07:43:00,75.0,72.0,29.86,SSW,200,7.0,-999.0,88,-99.99,,,-99.99,,2013-07-23 12:43:00,
2013-07-23 08:01:00,77.0,72.0,29.87,SW,220,5.0,-999.0,83,-99.99,,,-99.99,,2013-07-23 13:01:00,
2013-07-23 08:11:00,77.0,72.0,29.89,SW,220,3.0,-999.0,83,-99.99,,,-99.99,,2013-07-23 13:11:00,
2013-07-23 08:32:00,75.0,72.0,29.90,North,0,0.0,-999.0,88,-99.99,,,-99.99,,2013-07-23 13:32:00,
2013-07-23 08:43:00,75.0,72.0,29.91,WNW,300,3.0,-999.0,88,-99.99,,,-99.99,,2013-07-23 13:43:00,
2013-07-23 08:52:00,79.0,72.0,29.92,NNW,340,5.0,-999.0,78,-99.99,,,-99.99,,2013-07-23 13:52:00,
2013-07-23 09:02:00,77.0,73.0,29.93,North,0,0.0,-999.0,88,-99.99,,,-99.99,,2013-07-23 14:02:00,
2013-07-23 09:22:00,81.0,72.0,29.95,NNW,340,10.0,-999.0,74,-99.99,,,-99.99,,2013-07-23 14:22:00,
2013-07-23 09:32:00,82.0,68.0,29.95,North,10,17.0,23.0,61,-99.99,,,-99.99,,2013-07-23 14:32:00,
2013-07-23 09:44:00,82.0,66.0,29.95,NNE,20,17.0,21.0,58,-99.99,,,-99.99,,2013-07-23 14:44:00,
2013-07-23 09:53:00,81.0,68.0,29.95,NE,40,12.0,18.0,65,-99.99,,,-99.99,,2013-07-23 14:53:00,
2013-07-23 10:03:00,81.0,70.0,29.95,NNE,30,16.0,-999.0,69,-99.99,,,-99.99,,2013-07-23 15:03:00,
2013-07-23 10:32:00,82.0,70.0,29.92,NE,50,15.0,-999.0,65,-99.99,,,-99.99,,2013-07-23 15:32:00,
2013-07-23 10:43:00,82.0,70.0,29.91,ENE,70,13.0,22.0,65,-99.99,,,-99.99,,2013-07-23 15:43:00,
2013-07-23 11:01:00,82.0,70.0,29.91,East,80,10.0,20.0,65,-99.99,,,-99.99,,2013-07-23 16:01:00,
2013-07-23 11:33:00,84.0,72.0,29.91,East,80,14.0,18.0,65,-99.99,,,-99.99,,2013-07-23 16:33:00,
2013-07-23 11:43:00,84.0,72.0,29.90,East,100,10.0,-999.0,65,-99.99,,,-99.99,,2013-07-23 16:43:00,
2013-07-23 11:52:00,86.0,70.0,29.90,East,90,12.0,16.0,58,-99.99,,,-99.99,,2013-07-23 16:52:00,
2013-07-23 12:02:00,88.0,72.0,29.90,East,90,13.0,17.0,58,-99.99,,,-99.99,,2013-07-23 17:02:00,
2013-07-23 12:11:00,88.0,72.0,29.90,East,90,9.0,-999.0,58,-99.99,,,-99.99,,2013-07-23 17:11:00,
2013-07-23 12:21:00,88.0,72.0,29.90,East,100,12.0,16.0,58,-99.99,,,-99.99,,2013-07-23 17:21:00,
2013-07-23 12:32:00,88.0,72.0,29.91,East,100,10.0,-999.0,58,-99.99,,,-99.99,,2013-07-23 17:32:00,
2013-07-23 12:42:00,90.0,72.0,29.91,East,100,12.0,-999.0,55,-99.99,,,-99.99,,2013-07-23 17:42:00,
2013-07-23 12:53:00,90.0,72.0,29.90,ESE,110,9.0,-999.0,55,-99.99,,,-99.99,,2013-07-23 17:53:00,
2013-07-23 13:02:00,90.0,72.0,29.90,East,100,13.0,-999.0,55,-99.99,,,-99.99,,2013-07-23 18:02:00,
2013-07-23 13:11:00,90.0,72.0,29.90,ESE,120,13.0,17.0,55,-99.99,,,-99.99,,2013-07-23 18:11:00,
2013-07-23 13:24:00,90.0,72.0,29.90,ESE,120,14.0,-999.0,55,-99.99,,,-99.99,,2013-07-23 18:24:00,
2013-07-23 13:33:00,90.0,72.0,29.90,East,90,13.0,-999.0,55,-99.99,,,-99.99,,2013-07-23 18:33:00,
2013-07-23 13:45:00,90.0,72.0,29.90,ESE,110,13.0,-999.0,55,-99.99,,,-99.99,,2013-07-23 18:45:00,
2013-07-23 13:53:00,90.0,70.0,29.89,East,90,10.0,-999.0,52,-99.99,,,-99.99,,2013-07-23 18:53:00,
2013-07-23 14:03:00,91.0,72.0,29.89,ESE,110,8.0,-999.0,52,-99.99,,,-99.99,,2013-07-23 19:03:00,
2013-07-23 14:13:00,91.0,73.0,29.89,East,100,13.0,16.0,55,-99.99,,,-99.99,,2013-07-23 19:13:00,
2013-07-23 14:33:00,91.0,73.0,29.88,East,90,13.0,17.0,55,-99.99,,,-99.99,,2013-07-23 19:33:00,
2013-07-23 14:45:00,91.0,73.0,29.88,East,90,13.0,16.0,55,-99.99,,,-99.99,,2013-07-23 19:45:00,
2013-07-23 14:52:00,91.0,72.0,29.88,ENE,70,10.0,20.0,52,-99.99,,,-99.99,,2013-07-23 19:52:00,
2013-07-23 15:03:00,91.0,73.0,29.88,East,90,12.0,-999.0,55,-99.99,,,-99.99,,2013-07-23 20:03:00,
2013-07-23 15:12:00,93.0,73.0,29.87,East,90,14.0,17.0,52,-99.99,,,-99.99,,2013-07-23 20:12:00,
2013-07-23 15:22:00,93.0,73.0,29.87,East,80,14.0,20.0,52,-99.99,,,-99.99,,2013-07-23 20:22:00,
2013-07-23 15:34:00,93.0,73.0,29.86,East,90,14.0,20.0,52,-99.99,,,-99.99,,2013-07-23 20:34:00,
2013-07-23 15:44:00,93.0,73.0,29.86,East,100,16.0,22.0,52,-99.99,,,-99.99,,2013-07-23 20:44:00,
2013-07-23 15:54:00,93.0,73.0,29.85,East,100,13.0,18.0,52,-99.99,,,-99.99,,2013-07-23 20:54:00,
2013-07-23 16:04:00,93.0,73.0,29.85,East,90,13.0,21.0,52,-99.99,,,-99.99,,2013-07-23 21:04:00,
2013-07-23 16:13:00,93.0,73.0,29.85,East,100,13.0,20.0,52,-99.99,,,-99.99,,2013-07-23 21:13:00,
2013-07-23 16:22:00,93.0,75.0,29.85,ESE,110,13.0,18.0,56,-99.99,,,-99.99,,2013-07-23 21:22:00,
2013-07-23 16:45:00,93.0,73.0,29.84,ESE,110,15.0,20.0,52,-99.99,,,-99.99,,2013-07-23 21:45:00,
2013-07-23 16:54:00,93.0,73.0,29.84,East,80,13.0,17.0,52,-99.99,,,-99.99,,2013-07-23 21:54:00,
2013-07-23 17:04:00,93.0,73.0,29.84,East,80,13.0,21.0,52,-99.99,,,-99.99,,2013-07-23 22:04:00,
2013-07-23 17:11:00,93.0,73.0,29.84,ENE,70,13.0,-999.0,52,-99.99,,,-99.99,,2013-07-23 22:11:00,
2013-07-23 17:33:00,93.0,75.0,29.83,East,90,12.0,18.0,56,-99.99,,,-99.99,,2013-07-23 22:33:00,
2013-07-23 17:43:00,93.0,75.0,29.83,East,80,13.0,18.0,56,-99.99,,,-99.99,,2013-07-23 22:43:00,
2013-07-23 17:55:00,93.0,75.0,29.82,East,90,15.0,21.0,56,-99.99,,,-99.99,,2013-07-23 22:55:00,
2013-07-23 18:04:00,91.0,73.0,29.82,East,90,14.0,22.0,55,-99.99,,,-99.99,,2013-07-23 23:04:00,
2013-07-23 18:12:00,91.0,73.0,29.81,East,80,15.0,22.0,55,-99.99,,,-99.99,,2013-07-23 23:12:00,
2013-07-23 18:24:00,91.0,73.0,29.81,East,100,14.0,20.0,55,-99.99,,,-99.99,,2013-07-23 23:24:00,
2013-07-23 18:34:00,90.0,73.0,29.80,East,100,15.0,22.0,59,-99.99,,,-99.99,,2013-07-23 23:34:00,
2013-07-23 18:43:00,90.0,73.0,29.80,East,90,13.0,18.0,59,-99.99,,,-99.99,,2013-07-23 23:43:00,
2013-07-23 18:54:00,90.0,73.0,29.80,East,90,13.0,21.0,59,-99.99,,,-99.99,,2013-07-23 23:54:00,
2013-07-23 19:05:00,90.0,73.0,29.80,East,80,13.0,18.0,59,-99.99,,,-99.99,,2013-07-24 00:05:00,
2013-07-23 19:34:00,88.0,73.0,29.78,East,90,12.0,18.0,62,-99.99,,,-99.99,,2013-07-24 00:34:00,
2013-07-23 19:46:00,88.0,73.0,29.78,East,90,10.0,17.0,62,-99.99,,,-99.99,,2013-07-24 00:46:00,
2013-07-23 19:53:00,88.0,73.0,29.79,East,90,12.0,17.0,62,-99.99,,,-99.99,,2013-07-24 00:53:00,
2013-07-23 20:03:00,88.0,73.0,29.79,East,90,13.0,-999.0,62,-99.99,,,-99.99,,2013-07-24 01:03:00,
2013-07-23 20:12:00,88.0,73.0,29.79,ESE,110,8.0,-999.0,62,-99.99,,,-99.99,,2013-07-24 01:12:00,
2013-07-23 20:24:00,88.0,73.0,29.79,East,90,9.0,16.0,62,-99.99,,,-99.99,,2013-07-24 01:24:00,
2013-07-23 20:32:00,86.0,73.0,29.78,East,100,9.0,-999.0,66,-99.99,,,-99.99,,2013-07-24 01:32:00,
2013-07-23 20:43:00,86.0,73.0,29.80,NNE,20,10.0,-999.0,66,-99.99,,,-99.99,,2013-07-24 01:43:00,
2013-07-23 21:45:00,73.0,68.0,29.82,ESE,120,5.0,21.0,83,-99.99,,,-99.99,,2013-07-24 02:45:00,
2013-07-23 21:54:00,73.0,68.0,29.82,NE,50,15.0,21.0,83,-99.99,,,-99.99,,2013-07-24 02:54:00,
2013-07-23 22:02:00,73.0,68.0,29.86,NE,50,18.0,29.0,83,-99.99,,,-99.99,,2013-07-24 03:02:00,
2013-07-23 22:12:00,72.0,70.0,29.88,NE,50,16.0,-999.0,94,-99.99,,,-99.99,,2013-07-24 03:12:00,
2013-07-23 22:23:00,72.0,70.0,29.89,ENE,60,14.0,-999.0,94,-99.99,,,-99.99,,2013-07-24 03:23:00,
2013-07-23 22:43:00,72.0,70.0,29.89,NE,40,16.0,-999.0,94,-99.99,,,-99.99,,2013-07-24 03:43:00,
2013-07-23 23:01:00,72.0,68.0,29.91,ENE,60,16.0,-999.0,88,-99.99,,,-99.99,,2013-07-24 04:01:00,
2013-07-23 23:11:00,73.0,68.0,29.91,NE,50,17.0,-999.0,83,-99.99,,,-99.99,,2013-07-24 04:11:00,
2013-07-23 23:22:00,73.0,68.0,29.93,NE,50,13.0,-999.0,83,-99.99,,,-99.99,,2013-07-24 04:22:00,
2013-07-23 23:32:00,72.0,68.0,29.94,NE,50,13.0,-999.0,88,-99.99,,,-99.99,,2013-07-24 04:32:00,
2013-07-23 23:43:00,72.0,68.0,29.95,NNE,30,13.0,18.0,88,-99.99,,,-99.99,,2013-07-24 04:43:00,
2013-07-23 23:52:00,73.0,68.0,29.96,NE,40,12.0,-999.0,83,-99.99,,,-99.99,,2013-07-24 04:52:00,